Terminal Aerodrome Forecast
Issued by NWS

Home | Current Version | Previous Version | Graphics & Text | Print | Product List | Glossary On
Versions: 1 2 3 4 5 6 7 8 9 10 11 12 13 14
000
FTUS45 KGGW 172300
TAFSDY
TAF
KSDY 172332Z 1800/1824 14015G23KT P6SM FEW050 BKN100
     FM180300 13015KT P6SM VCSH BKN050 OVC100
     FM180700 13015KT P6SM OVC100
     FM182100 22014KT P6SM VCSH BKN050 OVC100
      AMD LTD TO CLD VIS AND WIND=

USA.gov is the U.S. government's official web portal to all federal, state and local government web resources and services.